Regional Weather Roundup
Issued by NWS

Home | Current Version | Previous Version | Text Only | Print | Product List | Glossary On
Versions: 1 2 3 4 5 6 7 8 9 10 11 12 13 14 15 16 17 18 19 20 21 22 23 24 25 26 27 28 29 30 31 32 33 34 35 36 37 38 39 40 41 42 43 44 45 46 47 48 49 50
000
ASUS43 KLMK 210210
RWRKY
KENTUCKY REGIONAL WEATHER ROUNDUP
NATIONAL WEATHER SERVICE LOUISVILLE KY
1000 PM EDT FRI OCT 20 2017

NOTE "FAIR" INDICATES FEW OR NO CLOUDS BELOW 12,000 FEET
WITH NO SIGNIFICANT WEATHER AND/OR OBSTRUCTIONS TO VISIBILITY.

KYZ001>023-026-027-061>063-070>075-210300-
WESTERN AND SOUTH CENTRAL KENTUCKY

CITY           SKY/WX    TMP DP  RH WIND       PRES   REMARKS
PADUCAH        PTCLDY    59  50  72 SE6       30.12S
HENDERSON      CLOUDY    65  50  58 SE7       30.14F
OWENSBORO      PTCLDY    60  51  72 CALM      30.16S
HOPKINSVILLE   MOCLDY    61  48  61 SE5       30.14F
BOWLING GREEN  CLOUDY    57  54  89 CALM      30.17F
GLASGOW        CLOUDY    55  51  87 E3        30.18F
$$

KYZ024-025-028>034-038-045-046-053-210300-
NORTH CENTRAL KENTUCKY

CITY           SKY/WX    TMP DP  RH WIND       PRES   REMARKS
LOUISVILLE/SDF PTCLDY    64  52  64 SE3       30.17F
LOUISVILLE/LOU CLEAR     59  54  83 CALM      30.18F
FORT KNOX      CLOUDY    59  51  76 E3        30.16F
$$

KYZ035>037-039>044-047>052-055>060-089>105-210300-
NORTHEAST KENTUCKY

CITY           SKY/WX    TMP DP  RH WIND       PRES   REMARKS
LEXINGTON      CLEAR     59  51  75 SE3       30.21S
COVINGTON      PTCLDY    61  53  75 S6        30.19F
FRANKFORT      CLEAR     55  50  83 CALM      30.20S
$$

KYZ054-064>069-076>088-106>120-210300-
SOUTHEAST KENTUCKY

CITY           SKY/WX    TMP DP  RH WIND       PRES   REMARKS
JACKSON        CLEAR     63  50  62 CALM      30.24R
LONDON         CLEAR     55  51  86 CALM      30.23R
SOMERSET       CLEAR     54  54 100 CALM      30.23S
MIDDLESBORO    CLEAR     52  50  95 CALM      30.26R
MONTICELLO     CLOUDY    49  47  93 CALM      30.23S
$$





USA.gov is the U.S. government's official web portal to all federal, state and local government web resources and services.